Regional Weather Roundup
Issued by NWS Grand Forks, ND

Home | Current Version | Previous Version | Graphics & Text | Print | Product List | Glossary On
Versions: 1 2 3 4 5 6 7 8 9 10 11 12 13 14 15 16 17 18 19 20 21 22 23 24 25 26 27 28 29 30 31 32 33 34 35 36 37 38 39 40 41 42 43 44 45 46 47 48 49 50
000
ASUS43 KFGF 271910
RWRFGF
PRAIRIE TO PINES  WEATHER ROUNDUP
NATIONAL WEATHER SERVICE EASTERN NORTH DAKOTA/GRAND FORKS ND
200 PM CDT FRI MAY 27 2016

 **SATELLITE DATA USED TO AUGMENT SKY COVER AT AUTOMATED STATIONS**
 *****  WEATHER ACROSS EASTERN NORTH DAKOTA  *****

CITY           SKY/WX    TMP DP  RH WIND       PRES   REMARKS
GRAND FORKS    CLOUDY    72  56  57 N7        29.78F
GRAND FRKS AFB CLOUDY    69  52  54 VRB6      29.79F
GRAND FRKS NWS   N/A     72 N/A N/A N5          N/A
DEVILS LAKE    CLOUDY    64  52  64 W6        29.82F
FARGO          CLOUDY    75  58  55 N13       29.74F
WAHPETON ARPT  MOCLDY    73  50  43 SE10      29.75S
$$

 ***** WEATHER ACROSS CENTRAL AND WESTERN NORTH DAKOTA  *****

CITY           SKY/WX    TMP DP  RH WIND       PRES   REMARKS
BISMARCK       MOSUNNY   70  48  45 NE6       29.82F
MINOT          CLOUDY    66  53  63 E8        29.82S
JAMESTOWN      CLOUDY    67  54  63 N5        29.80S
MINOT AFB      CLOUDY    62  55  75 NE10      29.82S
GARRISON         N/A     62  50  64 W3        29.84S
WILLISTON      CLOUDY    66  49  54 NE8       29.85S
DICKINSON      PTSUNNY   66  43  43 NE6       29.83S
HETTINGER      CLOUDY    67  44  43 NE7       29.84F
$$

 *****  OTHER AIRPORT OBSERVATIONS IN OUR AREA  *****

CITY           SKY/WX    TMP DP  RH WIND       PRES   REMARKS
WALHALLA       FAIR      66  59  77 E3        29.80S
GRAFTON AIRPOR FAIR      70  54  56 CALM      29.81S
VALLEY CITY AR FAIR      68  55  64 N6        29.81S
CANDO          NOT AVBL
CAVALIER APRT  FAIR      68  55  64 S6        29.79F
GWINNER        FAIR      73  59  60 NE9       29.77S
SHEYENNE NWR     N/A     74  59  58 N6        29.95
ROLLA          MOCLDY    59  59 100 NE10      29.84S
 ***** THE ABOVE OBSERVATIONS ARE NON NWS ARE NOT QUALITY
       CONTROLLED AND MAY MIS-REPORT RAIN FOR SNOW...
$$

  *****  WEATHER ACROSS NORTHERN MINNESOTA  *****

CITY           SKY/WX    TMP DP  RH WIND       PRES   REMARKS
FLAG ISLAND    MOSUNNY   63  54  72 S3        29.82S
WARROAD        PTSUNNY   68  59  73 NE12      29.81F
ROSEAU         CLOUDY    72  61  68 CALM      29.79F
HALLOCK        MOSUNNY   70  54  56 E3        29.79F
THF RVR FALLS  PTSUNNY   72  54  53 NE3       29.80S
BAUDETTE       LGT RAIN  70  54  56 SE12      29.80F
WASKISH        CLOUDY    70  57  64 SE15G25   29.83S
CROOKSTON      CLOUDY    70  57  64 N9        29.78F
STEPHEN NDAWN    N/A     70  55  60 N5          N/A
GREENBUSH NDAW   N/A     72  57  60 E2          N/A
$$
  *****  WEATHER ACROSS CENTRAL AND WEST MINNESOTA  *****

CITY           SKY/WX    TMP DP  RH WIND       PRES   REMARKS
FOSSTON        CLOUDY    73  57  56 SE13G20   29.78S
BEMIDJI        CLOUDY    66  56  70 SE23G30   29.83R
PARK RAPIDS    CLOUDY    67  56  67 E12G21    29.81S
ELBOW LAKE     DRIZZLE   64  61  88 SE8       29.78S
WADENA         LGT RAIN  66  57  72 SE10G17   29.79S
DETROIT LAKES  PTSUNNY   70  55  60 SE16      29.79S
MOORHEAD       CLOUDY    75  59  57 N8        29.74S
FERGUS FALLS   CLOUDY    70  57  64 SE10      29.73F
MORRIS MN      LGT RAIN  64  63  94 NE3       29.76F
STAPLES        CLOUDY    66  55  68 SE7G17    29.81S
$$
  *****  WEATHER ELSEWHERE ACROSS MINNESOTA  *****

CITY           SKY/WX    TMP DP  RH WIND       PRES   REMARKS
DULUTH         LGT RAIN  62  58  86 N9        29.88F
INTRNTL FALLS  CLOUDY    67  55  65 VRB6      29.86S
ELY            LGT RAIN  61  55  82 CALM      29.92F
CLOQUET        DRIZZLE   61  57  88 NE5       29.87F
WHEATON        CLOUDY    70  61  73 SE12      29.77F
BRAINERD       RAIN      62  60  93 VRB6      29.84S FOG
HIBBING        LGT RAIN  59  58  96 E6        29.90F
ALEXANDRIA     CLOUDY    63  60  90 W3        29.80R
SAINT CLOUD    CLOUDY    63  62  97 E6        29.81S
MINNEAPOLIS    LGT RAIN  64  61  90 NW3       29.80S
$$

  *****  WEATHER ACROSS SOUTH DAKOTA  *****

CITY           SKY/WX    TMP DP  RH WIND       PRES   REMARKS
SIOUX FALLS    PTSUNNY   72  57  59 CALM      29.76S
BROOKINGS      CLOUDY    66  58  75 NW9       29.78S
WATERTOWN      LGT RAIN  61  56  83 W5        29.79F
HURON          CLOUDY    63  59  87 NW9       29.79S
SISSETON         N/A     71  53  52 S13       29.76R
ABERDEEN       CLOUDY    72  55  55 SE7       29.78R
MITCHELL       CLOUDY    65  60  84 NW10      29.78F
PIERRE         CLOUDY    68  53  58 CALM      29.80F
MOBRIDGE       PTSUNNY   71  46  40 VRB3      29.80F
RAPID CITY     CLOUDY    64  45  49 N10       29.86S
$$

  *****  SOME WEATHER IN NEARBY STATES *****

CITY           SKY/WX    TMP DP  RH WIND       PRES   REMARKS
GLASGOW MT     MOSUNNY   67  47  48 SE9       29.86F
GREAT FALLS MT MOSUNNY   63  41  44 SW13G22   29.85F
CHEYENNE WY    CLOUDY    57  34  41 N20G26    29.92F
SCOTTSBLUFF NE CLOUDY    59  46  62 E17G23    29.89F
OMAHA NE       PTSUNNY   74  60  61 SW7       29.75F
DES MOINES IA  PTSUNNY   72  64  76 W9        29.75F
DAVENPORT IA   CLOUDY    74  66  76 S15G24    29.80F
CHICAGO IL     CLOUDY    81  63  54 S20G25    29.85F
EAU CLAIRE WI  LGT RAIN  68  63  84 E9        29.78F
LA CROSSE WI   CLOUDY    76  64  66 SE12      29.77S
$$

  *****  SOME NATIONAL WEATHER *****

CITY           SKY/WX    TMP DP  RH WIND       PRES   REMARKS
LA GUARDIA NY  MOSUNNY   84  69  60 SE13G20   30.03F
RALEIGH NC     MOSUNNY   87  65  47 S7        30.11F
ATLANTA GA     PTSUNNY   84  58  40 E9        30.09F
NEW ORLEANS LA CLOUDY    86  68  54 MISG      29.93F
OKLAHOMA CITY  CLOUDY    79  62  56 S14       29.70F
ALBUQUERQUE NM PTSUNNY   72  26  18 W15G25    29.92F
SALT LAKE CITY PTSUNNY   69  34  27 CALM      29.94F
LOS ANGELES CA MOSUNNY   66  55  67 W8        29.93S
BOISE ID       SUNNY     60  34  37 NW10G18   30.00F
SEATTLE WA     MOSUNNY   59  40  49 S10       30.16F
$$

*** WEATHER ACROSS MANITOBA...SASKATCHEWAN AND ONTARIO ***
                ***ONTARIO***

CITY           SKY/WX    TMP DP  RH WIND       PRES   REMARKS
GERALDTON      PTSUNNY   70  57  64 SE10G17   29.89F
THUNDER BAY    CLOUDY    54  48  82 E7        29.93R
SIOUX LOOKOUT  PTSUNNY   72  54  53 S3        29.85S
TORONTO        PTSUNNY   81  66  61 SE13G20   29.96S
BIG TROUT LK   CLOUDY    48  39  71 N8        30.05R
PICKLE LAKE    CLOUDY    63  57  82 N9        29.88R
DRYDEN         MOSUNNY   73  52  46 VRB8      29.84S
KENORA         PTSUNNY   70  52  52 SW5       29.83F
$$
                *** MANITOBA***

CITY           SKY/WX    TMP DP  RH WIND       PRES   REMARKS
BRANDON        CLOUDY    59  54  82 NE25      29.87R
DAUPHIN        CLOUDY    50  46  87 N14G20    29.97R
ISLAND LAKE    CLOUDY    45  37  76 E10       30.09R
PILOT MOUND      N/A     61  55  82 N13         N/A
THE PAS        CLOUDY    46  36  66 N12       30.09R
THOMPSON       CLOUDY    43  32  65 NE9       30.18S
WINNIPEG       PTSUNNY   64  59  82 N5        29.82S
LYNN LAKE      SUNNY     45  32  61 E13G21    30.17R
CHURCHILL      CLOUDY    32  27  80 NE8       30.35S WCI  25
GILLAM         CLOUDY    37  30  75 NE10      30.23R
$$
                ***SASKATCHEWAN***

CITY           SKY/WX    TMP DP  RH WIND       PRES   REMARKS
ESTEVAN        PTSUNNY   63  57  82 NE9       29.86S
KINDERSLEY     PTSUNNY   72  45  37 SE15G29   29.84S
LLOYDMINSTER   PTSUNNY   72  45  37 SE18G25   29.81F
PRINCE ALBERT  MOSUNNY   61  48  63 E15G21    29.95S
REGINA         CLOUDY    68  48  49 E13       29.87S
YORKTON        SUNNY     66  54  63 N17       29.92R
N. BATTLEFORD  PTSUNNY   68  50  52 E12       29.87F THUNDER
LA RONGE       MOSUNNY   50  39  66 NE16      30.04S
SASKATOON      PTSUNNY   72  50  46 E9        29.87F
SWIFT CURRENT  MOSUNNY   66  50  55 S9G20     29.87F
$$
NOTE: THESE ARE AUTOMATED STATIONS WITH LIMITED QUALITY CONTROL
      "FAIR" INDICATES FEW OR NO CLOUDS BELOW 12,000 FEET WITH NO
      SIGNIFICANT WEATHER AND/OR OBSTRUCTIONS TO VISIBILITY.
      SKY/WX - SKY CONDITION AND SIGNIFICANT WEATHER.
      TMP - AIR TEMPERATURE.    DP   - DEWPOINT TEMPERATURE.
      RH  - RELATIVE HUMIDITY.  PRES - PRESSURE.
      HX  - HEAT INDEX.         WCI  - WIND CHILL INDEX.
$




USA.gov is the U.S. government's official web portal to all federal, state and local government web resources and services.